Location: Central Falls
(41.8900°N, 71.3929°W)
Time: 16:41:49
(UTC+00:00)

Vanguard 1 - Pass Details

Date: 10 December 2023
Orbit: 653 x 3826 km, 34.3° (Epoch: 24 February)

Event Time Altitude Azimuth Distance (km) Brightness Sun altitude
Rises 05:42:33 0° 280° (W) 7,805 14.5 -66.7°
Enters shadow 05:44:23 - 277° (W) 7,603 14.4 -66.5°
Reaches altitude 10° 05:51:16 10° 263° (W) 6,929 - -65.6°
Maximum altitude 06:02:31 16° 234° (SW) 6,240 - -64.1°
Drops below altitude 10° 06:12:56 10° 203° (SSW) 6,267 - -62.6°
Sets 06:20:16 0° 184° (S) 6,731 - -61.5°
